Location: Newark
(50.0306°N, 2.3272°E)
Time: 04:10:36
(UTC+00:00)

A-11 Canister half - Pass Details

Date: 08 December 2019
Orbit: 1525 x 1684 km, 47.3° (Epoch: 27 January)

Event Time Altitude Azimuth Distance (km) Brightness Sun altitude
Rises 11:56:11 0° 286° (WNW) 4,932 11.5 17.2°
Reaches altitude 10° 11:59:29 10° 282° (WNW) 3,931 11.1 17.2°
Maximum altitude 12:09:01 50° 211° (SSW) 2,004 10.6 17.0°
Drops below altitude 10° 12:18:15 10° 140° (SE) 3,814 11.8 16.8°
Sets 12:21:25 0° 135° (SE) 4,775 12.1 16.7°
